Temp
20 18 16 16 15 15 14 14 14 14 15 15 16 16 17 18 18 19 18 15 14 15 16 16 14 13 12 11 11 10 10 10 10 10 9 9 9 9 9 8 8 8 8 9 8 8 8 8 7 7 7 7 7 7 6 6 6 6 6 6 6 6 6 5 5 5 5 5 5 5 5 5 5 5 5 6 6 7 6 6 5 5 5 4 4 4
20 17 15 15 14 14 14 13 13 14 14 15 16 17 17 18 17 18 17 15 14 14 16 16 14 13 12 11 10 10 10 10 9 9 9 9 9 9 9 8 8 8 8 9 8 8 8 8 7 7 7 6 6 6 6 6 6 6 6 6 6 5 5 5 5 5 4 4 4 4 4 4 4 4 5 5 6 6 6 6 6 5 5 4 4 4
19 16 15 15 14 13 13 14 14 14 14 15 17 17 17 17 16 17 17 15 14 14 15 16 15 14 12 10 10 10 10 9 9 9 8 9 8 8 8 8 8 8 8 8 8 8 8 7 7 7 7 6 6 6 6 6 6 5 6 6 6 5 5 5 4 4 4 3 3 3 3 3 3 4 4 4 5 5 5 5 6 5 5 5 4 4
18 16 15 14 13 13 14 15 15 15 15 16 17 16 15 16 15 15 16 15 15 15 15 15 15 14 11 10 10 9 9 9 8 9 8 8 8 8 8 8 8 7 7 7 8 8 8 7 7 7 6 6 6 6 6 6 5 5 5 6 5 5 5 5 4 3 3 3 2 2 2 2 2 3 3 3 4 5 5 6 6 5 5 5 5 4
17 16 14 13 13 14 15 16 15 15 17 17 16 15 15 15 14 14 15 15 16 14 12 13 15 15 12 10 10 9 9 9 8 9 9 8 8 8 8 8 8 7 7 7 7 7 7 7 7 7 7 6 6 5 6 5 5 5 5 5 5 4 4 4 4 4 3 3 3 2 2 2 2 2 2 3 3 4 5 5 5 5 5 5 5 5
16 15 13 14 15 15 16 16 14 14 17 17 15 15 14 14 13 14 14 14 16 15 13 13 15 16 14 12 11 10 9 9 9 9 9 9 8 8 8 8 8 7 7 7 7 7 7 7 7 6 6 6 6 5 5 5 4 4 4 5 5 4 4 4 4 4 3 3 3 3 3 2 2 2 2 2 2 3 3 4 4 4 4 4 4 4
16 15 14 15 16 16 17 16 14 13 15 16 16 15 14 14 13 13 14 13 15 16 15 14 14 15 15 14 13 10 9 9 9 9 9 9 8 8 8 8 7 7 7 7 7 7 7 7 7 6 6 5 5 5 4 4 4 4 4 4 4 4 4 4 4 4 3 2 3 2 2 2 2 2 2 2 2 2 2 3 3 3 3 3 3 4
16 15 15 15 16 17 17 16 14 13 14 15 16 15 14 14 13 13 13 13 15 16 15 15 15 14 15 15 13 11 10 9 9 9 9 8 8 8 8 8 7 7 7 7 7 7 7 6 6 6 6 5 5 4 4 4 4 4 4 4 4 3 3 3 3 3 2 2 2 2 2 2 2 3 3 3 3 2 2 3 3 3 3 3 3 3
14 15 14 14 16 17 15 15 14 12 13 15 16 14 14 13 13 13 13 14 15 15 15 16 15 13 14 15 12 9 10 10 9 9 9 8 8 8 8 7 7 7 7 7 6 6 7 6 6 5 5 5 4 4 4 4 3 3 3 3 3 3 3 3 3 2 2 2 2 2 2 2 2 2 2 3 3 2 3 3 3 3 3 3 3 3
14 13 12 13 15 15 14 14 14 12 13 15 15 14 14 13 12 13 13 14 15 14 15 16 15 13 12 14 13 10 11 11 9 9 9 8 8 7 7 7 7 7 6 6 6 6 6 6 5 5 4 4 4 4 3 3 3 3 3 3 3 3 3 2 2 2 2 2 2 2 2 2 2 2 2 2 2 2 2 3 3 3 3 3 3 3
13 11 10 12 13 13 13 13 13 13 13 14 14 15 16 15 14 14 14 15 15 14 15 15 14 12 11 13 14 11 9 8 7 8 8 8 7 7 7 7 7 6 6 6 6 6 6 5 5 5 4 4 4 4 3 3 3 3 3 3 3 2 2 2 2 2 2 2 2 2 2 2 2 2 2 2 2 2 2 2 3 3 3 3 3 3
13 12 12 12 12 12 13 14 13 12 13 14 14 15 15 15 16 16 16 16 14 14 15 15 14 12 11 13 12 8 6 6 6 7 7 7 7 7 7 6 6 6 5 5 5 5 5 5 5 4 4 4 3 3 3 3 3 3 2 2 2 2 1 1 1 1 2 1 1 1 1 1 1 1 2 2 2 2 2 2 2 2 2 2 3 3
15 15 14 12 11 12 13 15 14 13 14 15 14 14 13 13 14 13 14 14 13 13 14 14 13 11 12 13 10 7 7 7 7 7 7 7 7 7 6 6 6 5 5 5 5 5 5 5 4 4 4 3 3 3 3 2 2 2 2 1 1 1 1 1 1 1 1 1 1 1 1 1 1 1 1 1 1 1 2 2 2 2 2 2 2 2
16 15 14 13 13 13 13 15 15 14 15 14 13 13 12 11 11 10 12 12 12 13 13 14 12 11 12 12 9 8 8 7 7 7 8 7 7 6 6 6 5 5 5 5 4 4 4 4 4 3 3 3 2 2 2 2 2 1 1 1 1 1 1 1 1 0 0 0 0 0 0 1 1 1 1 1 1 1 1 2 2 2 2 2 2 2
16 16 15 15 14 13 13 13 12 12 14 14 14 13 12 11 10 9 11 11 10 11 12 12 11 11 12 10 9 9 8 8 8 8 8 7 7 6 6 5 5 4 4 4 4 4 4 4 3 3 3 2 2 2 1 1 1 1 0 0 0 0 0 -0 -1 -1 -0 -0 -0 -0 0 0 1 1 1 1 1 1 1 1 1 1 2 2 2 2
16 16 14 13 13 13 13 11 11 11 13 14 14 13 11 11 10 10 11 11 10 10 10 12 12 12 12 9 8 8 8 9 9 9 9 7 6 6 5 5 4 4 4 4 3 3 4 3 3 2 2 2 1 1 0 -0 0 0 0 0 -0 -1 -1 -1 -1 -1 -1 -0 -0 -0 0 0 0 1 1 1 1 1 1 1 1 1 1 1 1 1
15 16 15 13 12 12 11 11 11 11 13 14 13 11 11 11 10 10 10 10 10 9 10 11 11 11 11 9 8 9 9 9 9 8 8 7 6 5 4 4 4 3 3 3 3 3 3 3 2 2 2 1 1 0 -0 -0 -0 0 -0 -1 -1 -2 -1 -1 -1 -0 -0 -0 -0 -0 0 0 0 0 1 1 1 1 1 1 1 1 1 1 1 1
12 14 15 14 13 11 9 10 11 11 12 13 11 10 11 11 10 10 9 9 9 8 9 10 9 9 9 9 9 9 9 8 8 8 7 5 5 4 4 4 3 3 3 3 3 3 3 3 2 2 1 1 0 0 -0 -0 -0 -1 -1 -2 -1 -1 -1 -1 -1 -0 -0 -0 -0 -0 -0 -0 -0 0 0 0 0 0 0 0 1 1 1 1 1 1
11 13 15 15 14 11 9 10 12 11 12 12 11 10 10 9 9 10 9 7 7 6 7 8 8 8 9 9 8 8 8 7 7 7 5 4 4 3 3 3 3 3 3 3 3 3 3 2 2 1 1 1 0 -0 -0 -1 -1 -2 -2 -1 -1 -1 -1 -1 -1 -1 -1 -1 -1 -1 -1 -1 -0 -0 -0 -0 -0 -0 -0 -0 -0 0 0 0 0 0
11 13 14 14 15 13 12 13 13 12 11 11 11 11 10 9 9 9 8 7 6 6 6 6 6 7 9 9 8 7 7 7 6 6 5 4 4 3 3 3 2 2 2 2 2 2 2 2 1 1 1 0 -0 -0 -1 -1 -2 -2 -1 -1 -1 -1 -2 -2 -2 -2 -2 -2 -2 -2 -2 -1 -1 -1 -1 -1 -1 -1 -1 -1 -0 -0 -0 -0 -0 -0
12 12 13 14 16 15 14 13 12 12 11 11 11 9 8 9 8 8 8 7 6 6 5 4 5 6 8 9 8 8 7 7 6 5 4 4 3 3 3 2 2 2 2 2 2 2 2 1 1 1 0 -0 -1 -1 -1 -1 -2 -2 -2 -2 -2 -2 -3 -3 -3 -3 -3 -3 -3 -3 -2 -2 -2 -1 -1 -1 -1 -1 -1 -1 -1 -1 -1 -1 -1 -1
11 12 12 13 14 15 13 10 10 11 11 10 10 8 7 7 7 7 7 7 6 5 5 4 3 5 8 9 8 8 7 6 6 5 4 4 3 3 2 2 2 2 2 2 2 1 1 1 1 0 -0 -1 -1 -1 -1 -2 -2 -2 -3 -3 -3 -3 -3 -3 -3 -3 -3 -3 -3 -3 -2 -2 -2 -2 -2 -2 -2 -2 -1 -1 -1 -1 -1 -1 -1 -1
9 11 12 12 13 13 10 8 9 9 10 9 8 8 8 7 6 6 6 6 5 5 5 4 3 5 8 9 8 7 7 6 5 4 4 3 2 2 2 2 2 2 2 1 1 1 1 1 0 0 -1 -1 -1 -2 -2 -2 -3 -3 -3 -4 -4 -4 -4 -4 -4 -4 -4 -3 -3 -3 -3 -2 -2 -2 -2 -2 -2 -2 -2 -2 -2 -2 -2 -1 -1 -1
8 11 12 12 14 12 8 8 8 8 8 8 7 7 7 6 5 5 5 4 4 4 4 4 3 5 8 8 7 7 6 5 5 4 3 2 2 2 1 1 1 2 1 1 1 1 1 1 0 -0 -1 -1 -2 -2 -3 -3 -4 -4 -4 -5 -5 -5 -5 -5 -5 -5 -4 -4 -4 -4 -4 -3 -3 -3 -3 -3 -3 -2 -2 -2 -2 -2 -2 -2 -2 -1
8 12 12 11 12 11 10 10 9 8 9 9 7 5 5 5 4 4 3 3 3 4 4 3 2 4 7 7 7 6 5 5 4 4 3 2 2 1 1 1 1 1 1 1 1 1 0 0 -0 -1 -1 -2 -2 -3 -3 -4 -4 -5 -5 -5 -6 -6 -5 -6 -6 -6 -5 -5 -5 -5 -4 -4 -4 -3 -3 -3 -3 -3 -2 -2 -2 -2 -2 -2 -2 -2
8 12 12 10 10 10 10 10 10 10 10 10 7 4 4 4 3 3 4 3 3 4 4 2 2 4 5 6 5 5 4 4 3 3 2 1 1 1 1 1 1 1 1 0 0 -0 -0 -1 -1 -1 -2 -2 -3 -3 -4 -5 -5 -6 -6 -6 -6 -6 -6 -6 -6 -6 -6 -5 -5 -5 -5 -5 -4 -4 -4 -3 -3 -3 -2 -2 -2 -2 -2 -2 -2 -2
8 11 11 10 9 9 10 10 10 11 9 9 8 5 3 3 2 3 3 3 3 2 2 2 3 3 4 4 4 4 3 3 2 2 1 1 1 1 0 0 0 1 0 0 -0 -1 -1 -1 -2 -2 -2 -3 -3 -4 -5 -6 -6 -6 -6 -7 -7 -7 -6 -6 -7 -7 -7 -6 -6 -6 -5 -5 -5 -4 -4 -4 -3 -3 -3 -3 -3 -3 -2 -2 -2 -2
9 11 9 9 9 9 9 9 9 10 9 8 8 6 4 3 2 2 2 3 3 1 1 3 3 2 2 3 3 3 3 2 2 1 1 1 0 0 0 -0 -0 -0 -0 -1 -1 -1 -2 -2 -2 -2 -3 -3 -4 -5 -6 -6 -7 -7 -7 -7 -7 -7 -7 -7 -7 -7 -7 -7 -6 -6 -6 -5 -5 -5 -4 -4 -4 -3 -3 -3 -3 -3 -2 -2 -2 -2
8 10 8 7 7 8 8 9 9 9 8 8 7 6 5 3 2 2 2 2 2 1 1 3 3 2 2 3 3 3 2 2 1 1 1 0 -0 -0 -1 -1 -1 -1 -1 -1 -2 -2 -2 -3 -3 -3 -3 -4 -4 -5 -6 -7 -7 -8 -8 -8 -8 -7 -7 -7 -8 -8 -7 -7 -6 -6 -6 -5 -5 -5 -5 -4 -4 -4 -3 -3 -3 -2 -2 -2 -2 -2
7 9 7 5 6 7 8 9 9 8 8 7 6 5 5 4 3 2 2 3 2 2 2 2 2 2 2 3 3 3 2 2 1 1 0 -0 -1 -1 -1 -1 -1 -1 -2 -2 -2 -3 -3 -3 -3 -3 -4 -4 -5 -6 -7 -7 -7 -8 -8 -8 -8 -8 -8 -8 -8 -8 -8 -7 -7 -6 -6 -6 -6 -6 -5 -4 -4 -4 -3 -3 -3 -2 -2 -2 -2 -2
6 8 6 4 6 8 9 9 9 8 7 6 5 5 4 4 4 3 2 3 2 2 2 2 1 1 3 3 2 2 2 1 1 0 -0 -1 -1 -1 -2 -2 -2 -2 -2 -3 -3 -3 -3 -4 -4 -4 -4 -5 -6 -7 -7 -8 -8 -8 -8 -8 -8 -8 -9 -9 -8 -8 -8 -8 -7 -7 -7 -6 -6 -6 -6 -5 -5 -4 -4 -4 -3 -3 -3 -2 -2 -2
6 7 6 5 6 9 10 9 9 7 5 4 4 5 4 3 3 3 3 3 2 1 1 1 0 1 2 3 2 1 1 1 0 -0 -1 -1 -1 -2 -2 -2 -2 -2 -3 -3 -4 -4 -4 -4 -4 -4 -5 -5 -6 -7 -8 -8 -8 -8 -9 -9 -9 -9 -9 -9 -9 -9 -8 -8 -8 -7 -7 -7 -7 -6 -6 -6 -6 -5 -4 -4 -4 -3 -3 -3 -3 -2
4 6 7 6 6 9 10 9 8 6 4 4 5 4 4 3 3 3 3 3 2 2 1 0 1 1 2 1 0 0 0 -0 -0 -1 -1 -2 -2 -2 -2 -2 -3 -3 -3 -4 -4 -4 -4 -5 -5 -5 -5 -6 -7 -8 -8 -8 -9 -9 -9 -9 -9 -10 -10 -9 -9 -9 -9 -9 -8 -8 -8 -7 -7 -7 -7 -6 -6 -6 -5 -4 -4 -4 -3 -3 -3 -3
3 5 7 6 5 7 8 7 8 7 6 6 5 4 3 3 2 2 2 2 2 2 2 1 1 1 1 0 -0 -0 -1 -1 -1 -1 -2 -2 -2 -2 -2 -3 -3 -3 -4 -4 -4 -5 -5 -5 -5 -5 -6 -7 -7 -8 -8 -9 -9 -9 -9 -10 -10 -10 -10 -10 -10 -10 -9 -9 -9 -8 -8 -8 -8 -8 -7 -7 -7 -7 -6 -5 -4 -4 -4 -3 -3 -3
5 7 7 5 5 6 7 6 7 7 7 5 4 4 3 3 3 2 2 2 2 2 2 1 1 1 0 0 -0 -1 -1 -1 -1 -1 -2 -1 -2 -2 -2 -3 -3 -4 -4 -4 -5 -5 -5 -5 -6 -6 -7 -7 -8 -8 -9 -9 -10 -10 -10 -10 -10 -10 -10 -10 -10 -10 -10 -9 -9 -9 -9 -9 -9 -8 -8 -8 -8 -7 -7 -6 -5 -4 -4 -4 -3 -3
6 7 6 6 6 6 6 5 5 7 7 5 4 4 3 3 2 1 0 1 2 2 1 0 -0 0 -0 -0 -0 -1 -1 -1 -1 -2 -1 -2 -2 -2 -3 -3 -4 -4 -4 -5 -5 -5 -5 -6 -6 -7 -7 -8 -9 -9 -9 -10 -10 -10 -10 -10 -11 -11 -11 -11 -11 -10 -10 -10 -9 -9 -9 -10 -9 -9 -8 -8 -8 -7 -7 -6 -5 -4 -4 -4 -4 -3
7 7 6 6 6 5 4 4 5 7 7 4 3 3 3 2 2 0 -1 -0 1 2 1 -0 -0 -0 -1 -1 -1 -1 -1 -2 -3 -2 -2 -2 -2 -2 -3 -3 -4 -4 -5 -5 -5 -6 -6 -6 -7 -7 -8 -9 -9 -10 -10 -10 -11 -11 -11 -11 -11 -11 -11 -11 -11 -11 -10 -10 -10 -10 -10 -10 -10 -9 -9 -9 -8 -8 -7 -6 -6 -5 -4 -4 -4 -3
6 6 6 6 5 5 4 4 4 5 6 4 3 3 3 2 2 1 -1 -1 1 1 0 -0 -1 -1 -1 -1 -2 -2 -2 -3 -4 -3 -2 -2 -3 -3 -3 -4 -4 -4 -5 -5 -6 -6 -6 -7 -7 -8 -9 -9 -10 -10 -10 -11 -11 -11 -11 -11 -11 -12 -11 -11 -11 -11 -11 -11 -10 -11 -11 -10 -10 -9 -9 -9 -9 -8 -8 -7 -6 -5 -4 -4 -3 -3
5 5 5 5 5 5 4 3 3 4 5 4 3 3 3 2 2 1 -1 -1 1 1 -0 -1 -1 -2 -2 -2 -2 -2 -4 -5 -5 -4 -3 -3 -3 -3 -4 -4 -5 -5 -6 -6 -6 -7 -7 -8 -8 -9 -9 -10 -10 -11 -11 -11 -11 -12 -12 -12 -12 -12 -12 -12 -11 -11 -11 -11 -11 -11 -11 -11 -10 -10 -10 -9 -9 -9 -8 -8 -7 -6 -5 -4 -3 -3
5 5 5 5 5 5 4 3 4 4 4 4 3 3 3 2 2 -0 -2 -1 1 0 -1 -1 -2 -2 -2 -2 -3 -3 -5 -5 -5 -4 -3 -3 -4 -4 -4 -5 -5 -6 -6 -6 -7 -7 -8 -8 -9 -9 -10 -11 -11 -11 -11 -12 -12 -12 -12 -12 -12 -12 -12 -12 -12 -12 -12 -12 -12 -11 -11 -11 -10 -10 -10 -10 -10 -9 -9 -8 -7 -6 -5 -4 -4 -3
5 5 5 4 5 5 4 3 4 5 4 3 3 3 2 2 1 -1 -2 -1 0 -0 -1 -1 -2 -2 -2 -3 -3 -4 -4 -4 -4 -4 -4 -4 -4 -4 -5 -5 -6 -6 -7 -7 -7 -8 -8 -9 -9 -10 -11 -11 -11 -12 -12 -12 -12 -13 -13 -13 -12 -12 -12 -12 -12 -12 -12 -12 -12 -12 -11 -11 -11 -10 -10 -10 -10 -9 -9 -8 -7 -6 -5 -4 -4 -3
5 4 5 5 4 5 4 3 4 4 3 2 3 3 2 0 -2 -2 -0 0 -0 -1 -1 -2 -2 -2 -2 -3 -4 -4 -4 -3 -4 -4 -4 -4 -5 -5 -5 -6 -6 -6 -7 -8 -8 -8 -9 -9 -10 -11 -11 -12 -12 -12 -12 -13 -13 -13 -13 -13 -13 -12 -12 -12 -12 -12 -12 -12 -12 -12 -12 -11 -11 -11 -11 -11 -10 -10 -9 -8 -7 -6 -5 -4 -4 -3
4 4 6 5 4 4 4 3 2 2 3 3 3 2 1 -0 -1 -0 0 -0 -1 -1 -2 -2 -2 -2 -3 -3 -4 -4 -4 -4 -4 -4 -5 -5 -5 -5 -6 -6 -6 -7 -8 -8 -8 -9 -9 -10 -11 -11 -12 -12 -12 -13 -13 -13 -13 -13 -13 -13 -13 -13 -13 -13 -13 -13 -13 -12 -12 -12 -12 -12 -11 -11 -11 -11 -10 -9 -9 -8 -7 -6 -5 -4 -4 -3
4 4 5 5 3 2 3 3 2 3 5 4 2 1 1 1 1 0 -1 -1 -1 -1 -2 -2 -2 -3 -3 -4 -4 -4 -4 -4 -5 -5 -5 -6 -6 -6 -6 -6 -7 -8 -8 -8 -9 -9 -10 -11 -11 -12 -12 -12 -13 -13 -13 -14 -14 -14 -13 -13 -13 -13 -13 -13 -13 -13 -13 -13 -13 -12 -12 -12 -12 -12 -11 -11 -10 -9 -8 -8 -7 -6 -5 -5 -4 -3
4 4 5 4 3 3 3 3 4 5 5 4 3 2 1 1 1 0 -1 -2 -2 -2 -2 -3 -3 -3 -3 -4 -4 -4 -5 -5 -5 -5 -6 -6 -6 -6 -6 -7 -8 -8 -9 -9 -9 -10 -11 -11 -12 -12 -13 -13 -13 -14 -14 -14 -14 -14 -14 -14 -14 -14 -14 -13 -13 -13 -13 -13 -13 -13 -13 -12 -12 -12 -11 -10 -10 -9 -8 -8 -7 -6 -5 -5 -4 -4
4 4 4 3 3 4 4 5 5 4 4 3 3 2 1 1 0 -0 -1 -2 -2 -2 -2 -3 -3 -3 -4 -4 -4 -5 -5 -5 -6 -6 -6 -6 -7 -7 -7 -8 -8 -9 -9 -9 -10 -11 -11 -12 -12 -13 -13 -13 -14 -14 -14 -14 -14 -14 -14 -14 -14 -14 -14 -14 -14 -14 -13 -13 -13 -13 -13 -12 -12 -11 -11 -10 -9 -9 -8 -8 -7 -6 -6 -5 -4 -5
4 4 3 3 3 3 3 5 5 3 3 2 2 2 1 0 0 -1 -2 -2 -2 -2 -2 -3 -3 -3 -4 -4 -5 -5 -6 -6 -6 -6 -6 -7 -7 -7 -8 -8 -9 -9 -9 -10 -10 -11 -12 -12 -13 -13 -13 -14 -14 -14 -14 -14 -14 -14 -14 -14 -14 -14 -14 -14 -14 -14 -14 -14 -13 -13 -13 -12 -12 -11 -10 -10 -9 -9 -8 -8 -7 -6 -6 -5 -5 -5
4 3 3 3 3 3 3 5 4 3 2 2 1 1 1 -0 -1 -1 -1 -2 -2 -2 -2 -3 -3 -4 -4 -4 -5 -6 -6 -6 -7 -7 -7 -8 -8 -8 -8 -8 -9 -9 -10 -10 -11 -12 -13 -13 -13 -13 -14 -14 -15 -15 -15 -15 -15 -15 -15 -15 -15 -15 -15 -15 -15 -14 -14 -14 -13 -13 -13 -12 -11 -11 -10 -10 -10 -9 -8 -8 -7 -7 -6 -5 -5 -6
3 2 3 3 3 3 4 4 3 1 1 2 1 1 0 -1 -1 -2 -2 -2 -2 -3 -3 -3 -3 -4 -4 -5 -5 -6 -6 -7 -7 -7 -8 -8 -8 -8 -8 -9 -9 -10 -10 -11 -12 -13 -13 -13 -13 -14 -14 -15 -15 -15 -15 -15 -15 -15 -15 -15 -15 -15 -15 -15 -15 -15 -14 -14 -14 -13 -13 -12 -12 -11 -11 -10 -10 -9 -9 -8 -7 -7 -6 -6 -6 -6
3 3 4 3 2 2 3 3 2 -0 -0 1 1 0 -0 -1 -1 -2 -2 -2 -3 -3 -3 -4 -4 -4 -5 -5 -5 -6 -7 -7 -7 -7 -8 -8 -8 -8 -9 -9 -9 -10 -11 -12 -13 -13 -13 -14 -14 -14 -15 -15 -15 -15 -15 -15 -15 -15 -16 -16 -16 -16 -16 -15 -15 -15 -15 -14 -14 -14 -13 -13 -12 -11 -11 -10 -10 -9 -9 -8 -7 -6 -6 -6 -6 -6
3 4 3 2 2 2 3 3 1 -0 -1 -0 0 -0 -1 -1 -1 -2 -3 -3 -3 -3 -3 -4 -5 -5 -5 -5 -6 -6 -6 -7 -7 -8 -8 -8 -9 -9 -9 -9 -10 -11 -12 -13 -13 -13 -14 -14 -14 -15 -15 -16 -16 -16 -16 -16 -16 -16 -16 -17 -16 -16 -16 -16 -15 -15 -15 -15 -14 -14 -13 -13 -12 -12 -11 -10 -10 -9 -9 -8 -7 -6 -6 -6 -6 -6
Height
800 810 821 827 832 832 831 834 833 831 829 828 823 820 816 811 806 799 799 806 811 810 800 797 806 809 813 818 819 821 820 821 822 821 822 822 823 823 823 823 822 822 821 821 821 819 819 818 816 815 813 811 809 807 805 802 800 798 795 792 789 787 785 783 781 779 777 774 772 770 768 767 765 764 762 760 758 756 754 752 750 748 747 747 746 746
804 819 833 834 834 834 834 835 835 833 831 828 823 818 813 810 809 801 801 807 810 813 802 797 805 808 813 818 819 821 820 822 822 822 823 822 823 823 822 824 822 822 821 820 820 818 818 817 815 814 812 810 808 805 803 800 798 795 792 789 787 785 783 781 780 778 776 774 772 769 767 766 763 762 760 757 755 754 752 750 748 746 745 744 742 742
815 828 834 834 835 836 835 834 834 833 831 825 819 819 817 813 812 803 802 808 810 811 802 796 800 802 811 818 818 820 820 823 824 823 824 823 823 823 822 823 822 821 821 819 819 817 816 815 813 812 810 808 806 803 801 798 795 792 789 786 784 783 781 780 778 777 776 774 772 770 767 765 762 760 758 756 753 751 749 747 745 744 743 742 741 740
824 832 833 836 838 837 833 829 828 829 825 821 819 824 823 818 819 813 806 806 805 805 803 801 800 800 812 818 817 821 820 822 824 823 824 823 823 824 822 822 822 821 821 819 818 816 815 814 812 811 808 806 804 801 798 795 792 790 787 784 782 781 779 777 776 775 774 772 770 769 765 763 760 757 756 753 751 748 746 743 742 741 741 740 739 738
831 834 835 838 837 834 831 826 828 828 818 817 823 828 826 821 823 819 810 805 799 802 809 808 798 793 806 814 813 819 821 821 823 821 822 823 822 823 823 822 822 822 821 819 817 816 814 812 810 808 806 804 801 798 795 792 790 787 784 782 779 778 777 775 773 772 771 769 767 765 762 760 757 755 753 750 748 745 743 741 739 739 738 738 737 736
832 836 838 837 833 830 829 827 834 835 821 817 824 827 825 822 822 818 813 810 799 797 805 806 797 787 793 801 804 812 819 819 821 820 820 821 821 822 823 822 822 822 821 819 818 816 814 811 809 807 804 802 799 797 794 791 788 786 782 779 777 776 774 772 770 769 769 767 765 763 760 757 755 752 750 747 745 742 740 738 736 736 735 736 735 733
832 836 837 835 832 828 826 828 836 839 829 821 821 823 823 823 823 817 813 814 803 794 795 800 801 792 786 787 794 806 814 816 818 819 819 820 821 821 822 821 821 821 820 818 817 815 813 810 807 804 801 799 796 794 792 789 786 784 781 778 775 774 772 770 767 767 767 765 763 761 758 756 753 749 746 744 743 740 737 735 733 732 732 732 732 731
835 835 835 834 829 826 828 832 835 839 837 826 819 822 821 820 820 816 815 814 802 794 793 794 797 796 786 782 791 804 809 813 817 817 818 820 820 820 820 821 821 820 819 817 816 813 811 809 806 802 799 797 795 792 789 787 784 782 779 776 774 772 770 768 766 766 765 764 761 758 756 753 750 746 742 740 739 737 734 732 730 729 728 728 728 728
839 837 840 838 831 830 834 836 836 840 839 825 819 822 819 819 818 814 815 809 799 799 796 789 792 799 792 783 795 810 806 807 814 816 818 818 818 819 820 820 820 819 819 817 815 813 811 809 806 802 799 796 794 791 788 785 781 779 776 774 772 770 768 766 765 765 763 762 759 755 752 749 746 743 740 737 735 734 732 729 727 726 725 725 725 724
842 843 846 842 837 837 837 836 836 839 837 824 822 821 814 816 817 814 814 805 800 803 796 789 795 804 800 782 787 805 803 803 812 815 817 817 818 820 819 819 819 818 818 816 815 813 810 808 804 801 798 795 792 789 786 783 780 777 774 771 769 767 766 765 764 763 761 759 756 752 749 746 743 741 738 735 732 731 729 726 724 723 722 722 721 721
844 848 850 844 842 842 838 836 835 837 833 826 823 816 806 806 806 807 804 798 800 800 794 795 799 809 811 787 781 802 810 814 819 817 817 819 819 820 819 820 820 819 818 816 814 812 809 805 802 799 797 794 791 788 785 782 779 776 773 770 768 766 765 764 763 761 758 755 753 750 746 743 741 738 736 733 730 728 727 724 722 720 719 718 717 717
842 844 844 844 845 842 837 834 834 837 833 828 824 815 809 803 797 799 796 795 804 802 795 795 797 808 809 790 791 813 822 823 824 821 821 821 820 820 820 821 821 819 817 815 813 809 805 803 800 798 795 792 789 786 783 781 777 775 772 770 767 765 765 763 760 757 754 752 749 747 744 741 738 736 733 731 728 726 725 722 720 718 716 715 714 713
836 838 840 845 846 843 839 831 830 833 828 827 825 821 822 816 812 815 807 803 808 804 798 797 802 809 798 789 804 818 819 821 822 822 822 820 820 821 821 820 819 818 817 814 811 806 803 801 799 796 793 790 788 785 782 779 777 774 771 769 767 764 763 760 757 754 751 749 747 744 741 738 736 733 731 728 726 724 722 720 717 715 713 712 710 709
833 836 837 840 842 842 842 834 833 833 828 831 832 831 836 835 840 843 825 817 816 807 800 801 810 811 794 795 811 814 815 820 820 820 819 818 820 820 819 819 818 818 816 812 808 804 802 801 798 795 792 790 787 785 782 779 776 774 771 769 765 762 760 757 754 752 749 747 745 742 739 736 732 730 728 725 723 721 719 717 714 712 711 709 707 706
840 836 835 837 840 842 842 842 845 842 835 835 834 836 842 844 855 855 836 832 831 819 808 804 811 810 799 804 814 813 816 818 815 816 816 817 819 818 817 818 817 817 814 810 807 803 801 800 797 794 792 789 786 784 782 779 776 773 770 767 763 760 757 756 753 750 747 744 741 739 736 733 730 727 724 722 719 717 715 713 711 709 708 706 705 703
839 832 837 840 842 842 844 848 850 846 839 834 832 840 846 847 853 850 838 836 837 831 819 806 806 802 798 809 817 816 817 813 813 814 813 816 819 818 818 818 817 816 812 810 807 803 801 799 796 794 791 788 786 784 782 779 775 771 768 765 762 759 756 754 751 747 743 740 737 734 732 729 726 723 721 718 716 714 712 710 708 706 704 703 702 701
842 832 836 842 845 847 849 849 848 847 841 834 838 849 850 849 852 851 843 835 835 837 822 808 810 805 801 811 815 814 812 810 813 813 812 817 819 819 820 819 817 815 812 810 806 802 800 798 796 793 790 788 785 783 780 777 774 769 766 763 760 757 753 750 746 742 739 736 732 729 727 725 722 720 717 715 712 710 708 706 704 702 701 700 699 698
860 844 832 838 843 849 854 851 848 849 844 840 850 856 849 847 849 848 849 845 845 846 828 816 824 822 815 814 811 810 811 813 815 814 815 819 819 821 821 819 817 814 812 809 804 801 799 797 795 791 788 787 784 782 778 774 771 768 765 761 757 753 749 746 742 738 735 732 729 725 723 721 719 716 714 712 710 707 705 703 701 699 698 696 695 694
869 852 834 836 841 848 855 851 846 847 846 846 853 857 854 856 855 849 855 862 862 858 842 829 832 828 818 813 813 816 816 817 817 816 820 823 822 822 820 817 817 813 810 806 802 800 798 796 794 790 787 784 781 779 776 772 769 766 762 758 753 749 746 743 739 736 733 730 727 724 721 718 715 713 711 708 706 704 702 700 698 696 695 693 692 691
868 858 843 837 835 840 844 842 841 844 847 848 850 855 857 860 862 859 863 869 867 863 856 846 839 827 814 811 817 820 817 818 819 818 821 824 823 823 820 817 815 811 808 805 801 799 797 795 793 789 786 782 779 776 773 771 768 763 759 754 750 747 745 742 739 735 731 728 725 722 719 715 712 710 707 705 703 701 698 696 695 693 691 690 689 688
865 860 851 838 830 832 838 842 844 845 849 849 852 862 865 862 864 861 858 863 868 869 868 864 850 829 814 813 817 818 818 821 823 821 821 822 822 822 820 817 814 811 808 803 800 797 795 794 791 788 785 781 778 774 770 768 765 761 757 753 750 747 743 740 737 733 729 724 721 718 714 712 709 707 704 702 700 697 694 693 691 690 688 687 686 685
866 859 854 846 836 834 842 854 856 853 853 854 857 866 870 870 872 870 863 862 869 873 872 873 864 836 817 816 816 818 821 823 823 824 822 822 823 821 819 817 813 809 806 801 798 796 794 791 788 785 783 779 776 772 768 766 763 759 757 753 750 746 740 736 732 728 724 720 717 713 710 707 705 703 701 698 696 693 691 690 688 687 685 684 683 682
877 865 858 851 841 842 853 861 860 858 858 860 864 867 869 874 878 879 875 869 873 874 867 869 865 834 814 816 819 821 824 823 824 826 824 822 823 821 819 816 812 807 804 800 797 794 791 789 786 784 781 777 774 770 766 763 760 758 755 752 748 743 738 733 728 725 721 716 713 710 706 703 701 699 697 694 692 690 688 686 685 684 682 680 680 679
880 865 857 848 837 844 860 863 862 864 863 863 870 871 872 879 882 882 883 882 883 878 868 871 864 831 812 816 821 823 825 825 825 827 827 824 821 821 819 814 809 805 801 798 795 792 789 786 784 782 779 775 772 768 765 761 758 756 753 751 747 741 736 732 728 723 719 714 711 708 705 701 698 696 693 691 689 687 685 683 681 680 678 677 676 675
875 858 854 854 847 846 851 853 857 861 858 856 869 880 880 883 888 887 887 890 886 874 870 879 868 833 815 818 821 824 827 826 827 827 828 826 823 821 818 812 807 803 799 796 793 789 787 784 782 780 777 774 770 766 763 760 757 755 751 747 744 738 734 731 727 723 718 714 710 706 703 700 696 693 691 688 686 683 681 679 677 676 675 673 672 671
876 858 856 864 868 864 857 854 853 852 851 851 865 884 886 886 890 887 883 886 883 872 873 883 869 837 820 820 821 824 827 827 828 829 828 828 825 822 817 811 806 801 797 794 791 788 785 783 781 779 776 773 770 765 762 759 756 753 749 745 741 737 732 729 726 722 717 713 709 705 702 698 694 691 688 685 682 680 678 675 674 673 671 669 668 666
878 863 861 868 874 872 864 859 855 853 856 856 861 877 887 890 892 889 887 884 881 880 878 873 863 846 832 826 824 824 827 828 829 829 828 826 823 820 816 810 805 801 797 793 789 787 784 780 778 776 774 772 768 765 762 759 755 751 746 742 739 735 731 727 724 721 717 712 708 704 700 696 692 689 685 682 679 677 675 673 671 670 667 666 664 663
876 864 870 875 875 872 865 862 859 857 860 860 861 872 884 890 892 893 893 885 883 890 880 859 857 856 843 833 828 825 826 828 828 828 827 824 823 820 815 809 805 801 797 793 790 787 784 779 776 773 771 769 766 763 762 759 756 751 744 740 737 733 729 725 723 719 715 711 706 702 698 694 691 687 683 679 676 674 672 670 668 666 664 662 660 659
880 868 878 883 878 873 868 863 860 858 860 862 865 871 877 887 893 893 891 886 886 892 879 858 857 858 846 837 832 829 829 829 828 828 827 826 824 820 815 809 804 800 796 793 790 787 783 779 774 771 769 766 764 762 760 757 754 750 744 740 736 731 727 724 721 717 713 708 703 699 695 692 688 685 681 677 674 671 669 666 664 662 660 659 657 656
885 871 881 892 886 874 864 859 859 860 862 865 869 873 876 881 887 888 886 884 883 882 874 864 861 855 847 840 835 833 833 830 828 828 828 826 824 819 814 808 803 799 796 793 789 786 783 778 774 771 768 765 762 760 758 755 751 747 743 739 734 730 726 724 720 715 710 706 702 697 693 690 686 683 679 676 672 669 667 664 662 660 657 656 654 652
887 878 885 894 885 866 856 856 858 860 864 868 871 875 878 879 881 883 883 880 879 876 869 866 863 854 845 841 838 836 834 831 829 828 825 824 822 818 813 808 803 800 798 794 789 784 780 776 773 769 766 763 761 759 757 753 749 746 742 738 733 729 726 723 718 713 709 705 701 696 692 688 685 681 678 675 671 668 665 663 660 658 655 653 651 649
890 884 884 890 882 859 850 855 856 861 873 878 876 875 878 881 882 883 881 879 878 875 868 866 864 854 844 843 842 838 834 831 829 827 825 822 820 817 813 807 804 801 798 795 790 784 778 775 771 767 764 761 759 758 755 751 747 744 741 736 732 729 726 722 717 712 708 704 700 696 691 688 684 680 677 673 670 667 664 661 658 655 653 651 648 646
899 888 878 887 883 859 852 858 859 867 877 875 873 876 879 882 882 880 878 876 875 874 871 868 861 851 847 847 843 836 832 830 828 828 827 822 817 815 811 807 804 801 798 795 790 785 780 775 771 767 763 761 758 756 753 750 746 743 739 736 732 729 725 721 716 712 708 703 699 695 691 687 683 679 675 672 669 666 662 658 655 652 650 648 646 644
902 891 881 890 888 868 860 862 858 858 862 864 869 876 880 883 883 882 879 875 872 870 868 864 857 852 852 851 846 840 836 832 829 829 829 824 817 811 808 806 803 800 796 792 788 785 781 776 771 767 764 761 757 755 752 748 745 741 738 734 731 728 724 720 715 711 707 702 698 694 690 687 683 679 674 671 667 663 660 656 652 649 647 644 642 640
891 884 883 891 891 875 866 867 863 854 856 868 875 877 879 881 881 880 877 872 870 868 864 862 860 857 855 853 851 846 839 834 831 829 826 823 818 811 806 804 802 799 795 791 787 783 780 775 770 766 763 760 757 753 750 746 743 739 736 732 729 726 722 718 714 710 706 701 697 693 690 686 682 677 673 669 665 661 657 653 649 646 644 641 639 637
886 883 884 885 885 879 874 879 877 861 857 870 876 875 879 881 879 881 877 869 867 867 865 865 863 859 856 854 851 847 841 835 831 827 825 822 818 813 808 804 802 799 795 792 788 783 778 774 770 766 762 759 756 752 749 745 741 737 734 731 727 724 720 717 713 708 704 700 696 692 689 685 681 676 672 667 663 659 655 650 646 643 640 638 635 633
885 883 884 882 884 888 888 884 874 858 855 869 877 878 882 883 882 885 881 870 864 865 867 868 864 859 857 853 849 845 840 834 829 826 825 822 818 815 811 805 802 800 796 792 789 784 779 774 770 766 762 758 755 752 748 744 740 736 732 729 725 722 718 715 711 707 703 698 694 691 687 684 679 675 670 666 661 657 653 649 644 641 638 635 632 629
886 885 888 888 886 890 891 887 878 866 861 869 878 880 882 883 881 884 884 873 863 864 867 866 862 859 855 851 847 844 840 837 832 826 823 822 819 815 812 807 803 799 795 791 786 781 778 774 770 765 762 758 754 751 748 743 739 735 731 728 724 720 717 713 709 705 701 697 693 689 685 681 677 673 669 664 659 655 651 646 642 638 634 631 628 625
890 889 890 889 886 889 894 893 887 877 867 871 879 878 879 882 880 881 884 872 860 863 867 864 862 860 855 852 848 844 844 843 835 827 824 821 818 815 812 809 803 798 795 791 787 781 776 772 768 764 761 757 753 749 746 742 738 734 730 726 723 719 715 711 707 703 699 695 691 687 683 679 675 671 667 662 657 652 648 643 639 635 631 628 624 620
891 890 889 888 886 886 891 891 884 874 870 874 879 878 878 878 876 882 885 870 858 864 868 864 864 862 857 854 851 848 849 846 836 829 825 822 818 816 813 809 804 799 794 789 786 782 777 772 767 763 759 756 752 748 745 741 737 733 729 725 721 717 713 709 705 701 697 694 689 685 681 677 672 668 664 659 654 649 645 641 636 632 628 624 620 616
889 892 890 890 887 884 889 890 880 872 873 878 879 879 878 877 878 884 884 871 863 867 868 866 866 862 857 856 854 851 850 845 837 831 826 822 819 815 812 808 804 800 795 790 785 781 776 772 768 763 760 756 751 747 744 740 736 732 728 723 719 715 711 707 703 700 696 691 687 683 678 674 670 665 660 656 652 646 642 638 634 629 625 620 616 613
888 891 886 886 888 884 883 886 881 874 876 879 878 876 879 884 889 886 877 869 868 869 868 867 865 861 858 856 854 851 846 841 837 832 826 823 819 814 811 807 802 797 793 789 785 780 776 771 767 763 760 755 751 747 743 739 735 730 726 722 718 713 709 705 702 698 694 690 685 681 676 671 667 662 657 653 648 644 639 635 630 626 622 617 613 608
892 891 880 880 890 888 881 888 893 885 875 874 877 878 881 886 888 881 873 872 872 870 868 866 863 860 858 855 852 849 844 839 836 832 827 823 819 814 810 806 801 797 792 787 783 779 775 771 766 762 758 754 750 746 742 738 733 729 725 721 716 712 708 704 700 696 692 688 683 678 674 668 663 659 655 650 645 641 637 632 628 623 619 615 610 605
894 891 881 882 894 896 890 890 890 880 870 871 878 881 881 880 879 877 876 875 872 869 868 865 861 859 857 854 850 847 842 838 834 831 827 823 818 814 810 805 801 797 791 786 782 778 775 770 765 761 758 754 750 746 742 738 732 727 724 719 715 711 707 702 699 694 690 686 681 676 671 665 661 657 652 648 643 639 635 630 625 621 616 612 608 604
889 888 886 888 891 892 889 882 875 871 871 874 877 878 878 877 877 877 877 874 871 870 867 864 861 858 856 852 849 845 841 837 833 830 826 822 817 813 809 805 801 796 791 786 782 777 775 770 765 760 756 753 750 745 741 737 732 726 722 718 714 710 705 701 697 693 688 684 679 674 668 663 658 654 649 645 641 637 633 628 624 619 614 610 606 603
886 887 890 892 888 885 882 874 871 873 874 874 876 877 877 877 876 876 876 873 871 868 865 863 861 857 854 851 847 844 840 836 832 828 824 820 815 811 807 803 799 795 790 785 780 777 774 769 764 759 754 750 748 744 739 736 731 726 721 717 713 709 704 700 696 691 687 682 676 672 666 660 655 651 646 643 639 635 631 627 623 618 613 609 606 603
887 889 891 891 888 887 881 871 870 875 875 875 877 876 875 876 876 876 875 872 869 866 864 862 860 856 853 850 846 843 840 835 831 827 822 818 814 809 805 801 796 792 789 784 780 776 772 767 762 758 753 749 745 742 738 734 730 726 721 717 712 708 704 700 695 690 685 680 674 669 665 659 653 648 644 640 636 632 628 625 621 617 613 608 605 602
887 892 891 888 886 885 878 870 871 876 875 875 876 875 875 875 874 873 872 870 867 865 862 860 857 854 851 848 845 842 838 834 831 826 821 818 813 808 804 799 795 792 788 783 780 775 771 767 761 756 752 748 743 740 736 731 728 724 720 716 712 707 703 699 694 689 684 679 673 668 663 658 653 648 643 638 634 631 627 622 618 615 611 607 605 602
889 891 889 886 885 882 875 871 874 877 875 873 874 874 875 874 873 872 870 867 865 863 860 858 855 852 849 847 844 841 837 833 830 826 821 817 812 807 803 797 793 790 787 783 779 775 770 766 761 756 752 747 742 738 734 730 726 723 719 715 711 707 702 697 693 688 683 678 672 667 662 657 652 647 642 637 632 629 625 620 617 614 609 606 604 602
889 887 884 887 887 882 876 875 879 882 878 874 873 874 874 873 872 870 868 866 864 862 859 857 853 851 849 846 843 841 837 833 829 826 822 817 811 806 802 797 792 789 785 782 778 773 769 765 761 756 752 746 742 737 732 729 725 721 718 715 710 706 701 696 691 686 681 676 671 665 660 656 651 646 642 637 631 626 621 616 613 611 608 604 602 601
886 884 884 888 887 882 878 878 882 884 880 875 874 874 873 872 871 869 867 865 863 861 859 857 853 850 847 844 842 840 836 832 829 826 821 815 810 806 802 798 793 788 784 780 775 771 767 763 759 755 750 745 740 736 731 728 724 720 718 714 709 705 701 696 691 686 680 675 669 664 659 655 649 644 640 635 631 627 621 615 609 606 605 603 601 600
Wind_Speed
4 7 8 6 6 7 7 6 5 4 4 6 7 6 8 8 8 13 9 4 5 7 5 1 3 4 5 3 3 3 3 4 4 4 5 4 5 5 6 7 8 9 9 12 15 16 18 19 20 22 22 25 28 28 28 27 27 28 29 26 23 21 18 18 17 16 15 15 15 16 17 17 18 18 18 18 16 15 15 15 15 16 16 15 16 16
5 8 7 6 6 6 6 5 5 4 5 5 6 7 9 8 10 15 9 2 3 4 5 4 5 5 6 4 4 4 3 3 3 4 4 4 4 4 6 7 8 8 9 12 14 17 19 20 22 23 24 27 30 31 30 29 28 30 29 26 23 21 20 19 18 17 16 16 16 17 18 19 20 19 19 20 19 18 19 18 16 14 13 13 14 15
7 8 6 6 5 5 5 4 4 4 5 4 5 7 8 9 11 11 3 3 1 3 4 3 4 5 7 6 5 5 4 4 3 3 3 4 4 5 6 6 8 10 10 11 14 17 20 22 24 24 25 28 32 32 31 30 30 30 29 25 22 22 22 21 20 19 19 19 18 20 21 22 22 21 22 22 23 21 20 19 16 14 13 13 13 13
6 6 6 4 4 6 5 4 5 5 5 1 6 8 8 10 11 7 2 3 8 7 5 5 7 4 7 6 5 6 4 4 4 3 3 2 4 5 6 7 9 11 12 13 14 17 21 23 24 26 28 32 35 35 32 31 31 30 29 26 23 22 23 23 21 21 22 22 22 22 22 21 22 22 23 23 23 22 20 18 15 14 14 13 13 13
5 4 5 5 4 5 5 4 7 6 3 2 6 8 9 12 12 10 9 11 12 6 3 7 8 3 7 8 7 7 6 5 4 3 3 2 3 5 6 7 9 11 12 14 15 17 21 24 26 30 33 33 34 34 33 32 30 29 29 27 23 22 25 25 22 22 24 24 25 25 23 21 21 21 21 20 20 20 20 18 16 16 15 15 15 15
5 3 3 5 4 5 5 4 7 7 6 1 5 9 12 14 14 15 13 11 9 2 4 4 7 3 6 12 9 7 8 7 5 3 1 2 4 6 7 8 10 11 12 14 16 18 21 26 29 33 35 34 33 32 31 30 29 28 28 27 24 23 25 25 24 24 25 25 26 27 26 24 23 22 21 20 20 19 19 19 19 18 17 17 18 17
4 1 2 5 5 5 4 4 6 6 7 3 5 10 13 12 13 15 12 7 6 6 0 2 5 7 3 9 10 9 9 7 5 3 0 3 5 6 7 9 10 12 14 14 16 19 23 29 33 34 34 33 33 33 31 29 28 27 27 26 25 24 25 25 25 24 24 26 27 28 29 28 27 25 24 23 22 21 21 20 20 20 19 19 19 19
3 2 3 6 6 5 5 5 5 5 5 4 8 13 13 12 14 13 9 6 6 8 4 3 3 8 7 2 9 10 8 8 5 2 1 4 7 9 10 10 11 14 15 16 17 20 25 31 35 37 36 34 33 33 31 29 29 28 27 25 25 25 26 25 24 24 25 27 29 30 31 31 31 30 29 27 25 24 23 21 21 20 20 19 20 20
3 4 5 7 6 6 6 5 5 3 4 6 11 14 14 13 14 11 8 7 6 6 3 2 5 8 8 4 7 9 7 7 4 2 2 6 10 11 12 12 13 16 17 17 18 22 28 34 36 36 36 34 34 33 31 31 30 29 28 27 27 28 27 25 23 25 27 29 31 34 34 33 32 31 29 28 27 25 24 23 23 22 21 20 19 20
2 4 3 5 5 5 6 6 4 5 4 9 13 15 13 11 10 8 7 7 6 5 3 5 9 8 9 8 1 5 5 3 0 3 4 8 11 12 13 14 16 17 17 18 21 26 32 35 35 34 33 34 34 33 33 33 32 32 31 31 31 30 26 24 25 28 31 33 34 34 33 32 31 29 28 28 28 26 24 24 24 23 22 21 20 21
3 2 1 1 3 4 7 6 4 7 8 11 13 14 11 6 7 6 6 6 6 5 6 9 11 8 8 8 3 2 1 2 1 4 6 10 13 13 13 15 17 17 16 18 21 27 35 38 36 35 35 36 36 35 34 33 33 33 32 31 31 29 26 28 31 33 34 35 34 33 32 31 30 29 29 28 28 27 25 25 25 23 23 22 21 21
4 2 1 1 1 4 7 6 4 6 10 8 9 11 10 5 3 3 4 4 6 6 8 12 14 10 9 6 4 4 3 3 1 6 9 11 13 13 14 15 16 17 18 20 21 24 30 33 34 35 35 36 36 35 34 33 33 32 31 30 29 27 29 33 35 35 36 35 33 31 31 30 29 29 28 28 28 27 25 25 25 24 23 22 22 20
4 2 3 4 1 3 6 6 1 4 6 5 8 9 9 7 5 5 6 6 7 8 8 14 16 9 9 5 5 5 4 2 1 4 7 10 12 13 15 16 17 17 19 21 21 22 22 25 30 33 34 35 35 34 34 34 32 31 29 28 29 32 35 37 37 36 35 33 32 31 31 30 29 28 28 28 28 27 25 25 24 24 23 22 21 21
1 3 3 3 1 2 5 6 3 2 5 7 8 8 8 7 7 7 7 7 9 10 12 16 12 8 9 5 4 4 3 3 2 3 7 11 13 16 18 19 19 19 22 22 21 21 20 24 30 32 33 34 33 34 34 32 30 29 30 31 35 37 37 36 35 33 32 31 31 32 31 30 29 28 28 28 28 27 26 25 24 24 23 22 22 22
2 1 1 3 2 3 4 4 4 5 4 4 6 6 6 5 5 6 7 8 10 12 15 14 7 7 9 3 4 3 3 3 4 6 10 13 15 18 19 21 22 22 23 22 21 22 23 29 34 33 33 34 34 34 32 29 30 32 34 35 35 36 35 34 33 32 32 33 33 32 31 30 29 28 28 27 27 27 26 26 25 25 24 23 23 23
5 2 3 3 2 4 4 2 2 5 2 3 4 4 6 6 4 6 8 10 11 11 11 8 4 8 8 3 6 3 3 7 9 13 17 17 18 19 20 21 22 23 23 22 21 22 25 32 35 33 34 34 33 31 29 29 33 35 35 33 33 35 36 35 34 34 35 35 35 32 30 29 29 28 27 27 27 27 27 27 26 26 25 24 24 24
5 2 3 3 1 3 3 1 2 3 3 3 4 5 8 6 4 6 8 9 11 10 8 7 7 10 9 2 5 2 8 12 15 20 21 19 20 20 20 20 22 23 24 23 22 22 26 31 33 34 34 33 31 31 32 33 36 36 34 33 35 37 37 36 35 35 34 34 34 32 31 30 29 28 27 27 28 28 28 28 27 26 26 25 25 24
4 6 1 1 2 3 1 2 4 3 4 3 4 7 8 4 4 4 7 8 9 8 7 10 12 12 11 5 1 6 15 17 20 23 20 18 20 20 21 24 26 26 25 24 24 24 27 30 32 34 35 33 33 35 36 37 37 36 34 35 37 37 36 35 34 34 33 32 32 31 30 30 29 28 28 28 27 28 28 28 27 27 27 27 26 25
2 6 1 2 2 3 4 1 3 5 6 5 3 4 5 2 2 5 6 6 9 9 9 12 14 11 9 6 7 13 18 20 24 25 19 19 20 20 23 27 28 27 24 24 24 22 24 29 32 34 34 35 37 38 38 37 36 36 36 38 37 34 33 34 34 33 32 31 30 30 30 30 29 29 29 28 28 28 28 28 27 27 27 27 26 26
2 4 0 1 5 0 6 2 3 3 5 6 4 3 3 2 4 5 4 4 8 10 10 13 13 8 7 9 11 14 18 22 26 24 18 19 23 24 25 26 25 25 23 23 23 21 23 29 32 34 35 37 39 40 37 35 36 37 37 36 33 32 34 35 35 34 33 33 34 34 33 32 30 29 30 30 30 29 28 27 26 26 26 26 26 25
2 4 3 5 8 5 2 2 5 4 2 1 1 5 4 3 3 5 3 2 4 8 9 12 12 8 8 10 11 15 19 22 24 22 18 20 26 28 27 26 25 24 24 24 23 22 24 29 32 34 37 38 39 39 38 37 37 37 34 33 34 37 39 40 39 38 36 36 36 35 34 32 31 31 31 32 32 30 28 27 26 26 26 25 25 24
2 3 5 7 8 5 1 3 3 4 3 3 3 3 3 4 4 6 5 1 2 7 9 10 13 12 8 5 8 15 19 21 22 21 21 24 27 28 27 28 27 25 24 24 24 23 24 28 32 36 38 38 38 37 37 38 36 33 32 34 39 43 45 45 42 39 37 35 34 34 33 33 33 33 33 33 32 30 28 27 26 25 25 25 25 25
2 3 5 7 7 2 4 4 3 5 6 5 3 2 2 3 3 4 7 6 5 8 10 10 13 12 6 3 9 16 19 21 21 21 23 25 26 27 28 30 29 26 26 25 25 24 26 29 33 36 37 38 37 35 34 35 33 33 37 40 43 44 42 40 37 35 34 32 31 32 32 32 32 32 32 31 29 28 27 26 25 25 25 25 24 24
1 2 5 7 5 2 5 4 3 3 4 4 4 2 2 1 1 3 5 5 6 9 9 10 12 12 8 8 14 18 21 21 19 20 24 24 24 26 29 30 28 27 27 26 25 25 28 32 33 33 35 36 36 35 34 33 32 35 39 40 41 41 36 34 34 34 33 30 29 30 31 31 30 29 28 27 27 27 27 27 26 25 25 25 25 24
1 2 5 7 6 3 0 0 0 2 3 1 4 4 3 2 1 4 4 2 5 9 10 11 12 12 12 16 19 21 22 22 21 23 25 24 23 24 26 28 27 27 27 27 26 26 27 29 28 31 34 34 35 36 35 34 34 37 40 39 40 38 33 32 33 33 32 30 30 30 31 31 30 28 28 27 28 28 28 27 25 24 24 25 25 26
2 3 4 5 6 7 7 6 5 5 6 4 3 6 3 2 1 2 5 5 7 11 12 11 13 16 21 25 26 24 23 22 23 26 25 23 24 25 26 27 26 26 26 27 27 26 26 25 26 32 34 33 36 36 31 29 32 38 42 40 37 35 33 33 32 33 34 32 30 30 30 30 29 28 28 28 28 28 27 26 24 24 25 25 25 25
2 3 1 3 3 7 9 10 11 10 10 10 6 1 5 3 1 2 4 7 10 13 12 11 13 21 27 28 27 26 23 23 25 27 25 24 24 26 28 28 26 26 25 26 26 26 27 26 27 32 34 35 38 34 28 28 32 39 45 41 35 34 33 32 31 33 35 34 32 31 30 30 29 28 28 27 27 27 26 25 26 26 26 26 25 23
3 3 1 2 5 10 12 14 14 12 11 13 11 5 2 4 3 3 6 9 11 11 12 15 20 24 25 27 28 26 24 25 26 26 25 25 25 26 27 28 29 28 26 26 28 28 30 28 27 31 35 38 37 30 26 31 34 38 41 37 35 34 32 31 33 36 36 34 32 31 30 30 29 29 28 26 27 29 28 26 26 25 25 25 24 22
4 3 2 2 8 13 14 14 12 11 11 11 11 8 3 4 4 6 10 11 10 10 14 22 27 25 23 25 26 25 26 28 27 25 24 25 26 28 30 30 30 29 28 29 30 29 29 28 27 29 35 39 35 28 26 32 37 39 37 34 35 34 31 32 36 36 34 32 31 30 29 29 28 28 28 27 26 27 26 24 24 24 23 24 23 23
2 1 2 1 9 13 12 10 8 10 11 9 8 6 3 3 5 9 12 12 12 15 18 23 27 25 20 20 23 25 27 27 25 24 25 25 27 29 31 30 29 29 30 31 31 29 28 28 28 32 37 38 34 29 28 32 37 40 38 35 34 32 32 35 37 35 33 31 30 30 30 29 28 27 28 27 25 25 25 24 24 25 24 24 24 24
1 1 2 0 7 9 5 5 8 9 9 8 5 4 3 5 7 9 11 12 13 16 20 23 24 20 15 16 22 25 25 25 26 28 27 26 28 31 30 29 28 28 29 30 31 30 29 28 29 32 35 36 33 29 29 34 38 38 36 34 33 32 35 36 35 33 32 31 31 31 30 30 29 28 28 27 27 26 26 25 25 25 25 25 24 24
2 2 1 1 6 6 3 9 13 7 2 2 5 5 4 6 6 8 10 11 12 17 22 21 17 13 13 18 23 25 27 29 30 29 27 26 28 28 27 28 28 28 28 29 29 30 30 29 29 30 34 36 34 30 32 38 39 37 35 34 33 35 36 35 32 32 31 31 31 31 30 30 29 29 28 28 28 28 28 26 25 25 25 26 25 25
2 3 2 3 5 6 7 14 14 4 2 2 3 4 3 5 9 12 12 14 15 16 16 14 12 14 17 21 24 27 30 32 30 26 26 27 28 26 26 28 29 28 28 27 28 29 29 29 30 34 37 37 35 34 37 39 39 36 35 34 34 35 35 33 32 31 31 31 31 30 30 30 30 30 29 29 30 30 29 27 26 25 25 25 25 25
1 3 3 2 3 7 11 14 11 5 2 1 4 5 1 5 10 14 16 18 17 14 12 13 15 18 21 22 25 29 30 30 29 26 25 24 24 25 28 29 28 28 28 28 28 27 28 31 35 38 39 38 37 38 40 40 38 37 35 35 35 35 34 32 31 31 31 31 30 29 30 30 31 30 30 31 31 31 30 28 26 25 25 24 25 25
2 3 2 1 3 6 9 10 8 5 2 4 6 4 3 6 10 16 19 18 16 16 16 16 17 21 24 24 25 27 28 30 30 28 26 24 24 27 29 29 29 29 28 28 28 28 31 35 38 39 39 38 39 40 40 39 38 37 36 36 35 34 33 32 31 31 30 30 30 29 29 31 31 30 31 32 32 31 30 29 27 25 24 24 24 25
3 3 2 2 3 5 6 5 5 6 1 7 6 2 5 8 12 15 17 17 16 15 13 15 19 22 25 25 24 24 27 29 28 24 23 25 27 30 29 28 28 28 28 29 30 32 37 40 40 40 39 39 40 41 40 39 39 38 37 36 35 33 32 32 31 30 30 30 30 30 30 31 31 31 31 32 32 31 30 29 27 25 24 24 25 25
3 3 2 3 2 2 6 6 7 10 4 5 4 3 6 9 12 12 14 16 14 10 10 15 21 24 25 25 26 26 27 26 21 18 21 26 30 32 32 32 32 32 32 36 38 39 42 43 42 42 41 41 42 40 38 38 39 38 37 36 34 34 33 31 30 29 30 30 30 31 31 32 31 31 31 32 32 31 30 30 28 26 24 23 23 23
2 2 2 3 1 2 6 6 6 8 4 3 4 4 7 9 11 12 14 13 7 8 14 19 23 26 27 26 27 28 24 20 17 16 20 27 30 31 33 36 39 39 39 41 43 43 43 43 42 41 41 42 42 39 38 39 39 37 36 34 34 33 32 30 29 30 30 31 31 32 33 32 31 31 31 32 32 31 31 30 29 28 25 23 21 23
2 1 1 3 4 3 5 5 5 6 3 3 3 7 9 10 12 12 11 7 6 14 19 21 24 27 26 25 27 25 18 15 15 16 21 28 31 30 29 32 38 42 42 42 43 44 44 44 42 41 41 41 40 39 39 39 38 37 35 34 33 32 30 29 30 31 31 32 33 33 33 33 32 32 32 32 31 31 31 30 29 28 26 24 24 25
2 1 2 3 4 4 4 5 4 4 1 3 6 10 12 13 13 11 8 6 10 18 20 21 24 25 24 24 23 19 15 14 16 19 25 30 33 33 33 32 35 40 42 44 44 44 43 43 41 39 40 40 40 40 39 38 37 36 35 34 32 31 30 31 31 31 32 33 33 34 33 33 33 33 32 32 32 32 31 29 29 28 27 27 27 25
1 1 2 2 4 5 5 5 5 3 1 3 7 11 13 12 10 7 7 9 14 19 20 20 22 22 22 21 17 13 14 18 20 24 28 30 30 32 36 38 39 40 41 43 44 44 42 41 39 39 39 40 40 39 38 37 36 35 34 33 31 31 31 32 32 32 33 33 34 34 34 34 33 34 34 33 32 32 31 29 28 28 28 27 27 27
1 1 2 3 4 5 4 5 7 4 3 2 9 10 9 8 6 5 9 13 16 19 20 20 20 20 20 20 17 16 19 23 25 26 27 28 27 29 34 39 40 41 42 43 43 42 41 40 40 40 40 40 39 38 38 37 36 34 33 31 31 33 33 33 33 33 33 34 34 34 35 35 35 35 34 34 32 31 31 30 28 28 28 28 28 30
0 2 3 2 2 4 5 4 5 3 0 6 11 9 5 5 6 8 11 14 15 18 18 17 16 17 18 19 19 20 23 25 25 25 26 27 27 29 34 37 37 39 41 42 42 42 41 40 39 39 39 39 39 38 38 37 35 33 32 31 32 33 33 33 34 34 34 34 34 35 35 36 36 35 33 33 33 31 29 29 29 28 28 28 29 27
2 1 3 2 1 1 4 3 3 5 6 9 9 7 7 8 8 8 11 12 13 14 14 13 14 16 18 19 19 20 22 22 22 23 24 24 25 28 33 36 38 38 39 40 42 42 41 40 39 39 39 39 39 39 38 36 34 33 32 32 33 34 34 34 34 34 34 34 34 35 36 35 35 35 33 32 31 29 28 28 28 28 27 27 26 19
4 2 3 2 2 2 5 7 8 9 9 8 7 8 10 11 10 10 12 12 11 11 11 11 14 17 18 19 19 19 19 20 21 22 22 22 23 26 30 33 36 37 38 39 41 41 40 40 39 39 39 39 39 39 37 34 33 32 33 33 34 35 35 34 33 33 33 33 33 34 35 35 35 33 32 30 28 27 27 27 27 26 25 25 22 14
3 2 1 2 4 5 7 9 10 10 9 8 8 9 9 9 9 10 11 11 11 12 11 11 14 17 17 18 18 17 17 20 21 21 21 21 22 26 31 33 34 36 38 39 40 41 40 39 38 38 39 40 39 38 36 34 32 32 33 34 35 35 34 32 32 32 32 33 35 35 34 34 33 32 30 29 28 26 25 25 24 24 23 22 18 12
4 3 3 4 5 6 6 7 8 9 9 10 10 9 8 9 10 10 10 11 12 14 14 14 16 17 18 18 18 17 19 21 21 21 20 19 20 25 31 32 33 36 38 39 40 41 39 37 36 36 38 40 39 37 36 34 32 32 33 34 34 34 32 31 32 33 33 34 35 34 32 31 31 31 30 29 28 27 25 24 23 22 22 20 15 10
4 3 3 5 6 7 10 11 10 10 10 10 8 7 8 10 12 12 12 14 16 17 19 20 19 18 17 17 18 18 19 20 21 21 20 18 20 26 31 33 34 37 38 39 40 40 38 36 36 36 37 39 38 37 36 34 33 32 33 34 34 33 33 33 33 33 33 34 34 32 30 30 30 30 29 29 28 26 25 25 24 22 23 20 12 9
4 2 3 5 6 8 10 10 10 10 9 6 6 8 10 11 12 14 15 16 17 18 19 21 22 22 20 20 20 19 18 19 21 22 20 19 20 25 31 35 37 38 38 39 38 37 37 36 36 37 38 38 38 37 35 34 34 32 32 33 34 33 33 34 34 33 33 33 32 31 29 29 29 28 27 28 28 26 25 26 25 24 24 20 11 8
3 3 3 4 5 7 7 8 9 9 8 7 9 12 13 12 13 14 15 15 16 17 17 18 21 24 25 24 22 19 16 17 21 24 23 22 25 29 34 37 38 39 38 38 37 37 36 36 37 37 38 38 38 36 35 35 34 32 32 34 34 33 33 34 34 33 33 32 31 30 29 28 28 27 26 26 26 26 28 29 29 26 23 17 11 10
3 3 2 4 6 8 9 10 8 6 8 10 12 13 14 14 14 14 15 16 16 18 18 17 18 19 21 23 24 22 19 19 24 26 24 25 30 34 36 38 39 39 38 37 36 36 36 37 38 38 38 38 37 36 35 35 33 33 34 35 34 32 33 33 32 33 32 31 31 31 30 29 28 28 27 25 24 24 24 26 31 30 21 12 10 11
Wind_Direction
7 53 46 25 7 352 2 5 341 308 294 306 310 317 321 321 325 324 335 61 35 331 297 197 155 170 158 152 137 129 113 101 92 81 71 51 45 33 27 22 13 12 6 359 356 356 354 350 349 346 343 340 336 335 333 330 330 328 323 315 312 316 318 319 318 317 322 325 325 326 324 320 315 309 305 300 296 291 288 285 283 286 289 288 283 275
32 55 43 9 353 330 331 340 327 298 271 281 315 336 333 338 329 315 319 73 70 330 286 196 185 194 167 162 158 158 159 120 88 79 68 45 41 25 19 14 5 4 355 352 351 349 349 347 345 343 341 339 337 334 331 328 327 326 321 312 308 312 314 314 313 311 314 316 319 321 319 316 314 310 305 299 294 291 289 283 274 272 274 276 279 279
55 53 22 358 346 312 289 298 306 283 265 275 340 351 339 342 330 311 298 138 193 294 277 231 244 221 164 166 174 166 163 132 99 82 69 39 32 16 10 6 356 353 348 346 346 344 344 343 342 342 340 339 336 331 328 327 324 324 321 312 306 309 311 311 310 306 306 307 310 311 309 307 307 305 303 299 294 288 284 278 270 268 270 265 261 261
58 45 9 342 310 307 289 308 327 287 254 264 12 359 335 334 328 310 300 279 282 284 280 281 281 230 162 175 185 172 167 145 136 120 100 45 25 13 0 359 353 348 343 341 341 341 340 339 340 338 336 335 334 329 325 324 323 322 320 314 307 308 310 308 307 306 305 304 305 305 303 300 299 299 299 297 293 288 282 276 272 275 275 269 264 260
68 47 358 312 278 308 301 343 6 332 292 101 44 2 324 319 313 294 296 300 292 276 236 267 279 231 180 197 193 174 175 166 166 165 130 69 20 6 351 352 351 344 340 337 337 339 337 336 335 333 331 330 331 330 326 322 320 318 316 312 306 307 308 305 303 305 307 306 306 306 305 302 299 298 296 293 288 284 281 278 279 282 278 274 275 270
63 60 338 317 304 316 313 6 23 346 321 78 52 352 312 305 302 290 296 307 303 280 158 233 297 317 187 197 192 170 177 179 175 181 152 21 2 356 346 342 344 342 340 336 334 335 334 332 330 330 330 329 328 328 325 320 317 314 312 309 304 305 306 302 298 301 305 306 306 307 307 305 302 297 294 289 282 275 272 273 277 280 280 279 280 275
45 59 274 314 311 320 347 29 37 357 319 310 3 330 299 295 294 291 302 309 304 316 205 193 306 327 268 202 187 173 178 180 175 187 314 358 351 348 342 339 341 341 339 335 332 332 331 331 330 329 330 331 328 325 322 318 315 312 311 309 307 307 306 302 299 300 304 305 305 305 304 302 299 294 290 288 284 276 270 269 269 271 273 274 276 276
15 355 347 337 330 359 11 11 18 359 309 309 340 320 296 294 289 287 300 281 280 310 285 184 312 323 319 241 163 166 182 180 185 232 342 0 353 350 349 347 344 340 336 333 330 331 331 330 329 327 326 326 324 322 319 317 315 313 311 310 308 307 307 304 301 301 304 305 304 304 302 299 297 294 289 287 287 282 274 271 270 269 268 267 266 268
5 6 15 347 354 22 1 337 335 310 278 309 322 309 291 284 281 280 282 271 289 310 255 155 6 329 315 329 139 162 202 195 197 305 343 351 355 356 351 346 341 338 336 334 331 330 329 327 325 324 323 322 321 321 319 317 316 314 312 310 308 308 308 306 305 305 304 304 303 302 300 296 296 295 291 287 287 285 279 275 273 273 271 268 265 264
47 32 4 331 2 6 328 317 291 239 266 309 305 296 283 259 256 261 258 270 287 290 290 13 5 337 305 311 139 169 217 209 284 326 339 350 354 352 346 342 339 338 336 332 330 327 326 325 323 324 324 322 322 321 318 317 315 314 313 312 310 310 310 308 309 307 305 304 304 302 298 295 294 294 291 288 287 286 283 279 277 275 273 271 269 268
108 70 302 336 12 316 296 289 246 228 261 295 301 305 302 262 236 237 244 276 280 289 342 4 358 339 302 308 0 106 156 122 24 338 347 351 348 345 344 342 337 335 333 331 329 325 325 325 325 325 324 322 321 320 318 316 316 314 313 312 311 311 312 311 310 307 305 305 305 301 298 295 293 292 290 289 287 288 285 282 280 278 277 274 270 269
150 163 158 129 304 302 292 269 211 226 258 289 321 331 333 323 285 260 276 302 298 314 347 349 344 325 289 306 56 101 130 134 28 349 346 341 341 342 340 337 335 334 334 332 328 323 323 325 326 325 322 321 321 320 318 317 316 316 314 314 312 310 310 309 307 305 306 307 305 301 298 295 293 291 289 288 288 289 287 283 281 280 279 277 274 270
162 152 126 148 210 335 319 305 179 213 265 330 350 348 349 344 349 339 330 336 315 312 332 337 338 316 287 340 82 133 146 120 11 343 335 336 341 340 337 336 337 336 332 328 325 324 325 326 326 324 324 324 323 321 320 319 319 319 318 315 310 306 306 306 306 306 308 308 306 303 300 296 292 290 288 287 286 287 286 283 282 281 280 279 277 274
140 136 134 150 142 12 332 337 9 322 331 7 3 358 0 351 346 332 327 332 313 308 318 324 327 302 299 346 97 130 94 61 349 324 334 344 344 340 341 341 338 332 328 326 323 325 328 328 327 327 327 326 324 323 322 321 322 323 319 313 308 305 307 309 311 311 311 309 306 303 301 297 292 290 288 287 285 284 284 282 280 280 280 280 278 276
294 202 69 45 33 2 358 13 354 314 325 24 18 3 1 353 334 314 317 323 310 306 310 312 316 312 316 3 90 69 46 2 338 339 340 344 343 342 343 340 334 329 328 329 328 329 331 330 329 328 327 326 325 325 325 323 321 320 316 311 309 311 315 317 316 311 307 304 302 299 298 296 293 291 290 288 286 284 283 282 279 277 278 278 277 277
283 260 82 61 12 357 27 69 300 298 303 15 13 3 355 347 310 284 291 302 302 300 304 310 317 311 318 65 97 70 353 335 337 334 333 335 338 340 339 335 332 330 331 332 330 329 329 328 328 327 326 326 327 328 326 320 318 318 315 313 315 317 317 314 309 304 301 300 298 295 293 293 292 291 291 290 288 287 285 283 280 277 276 276 276 275
311 299 111 103 76 52 44 43 349 332 316 336 358 351 332 315 275 281 292 299 303 298 299 315 315 307 314 26 130 105 345 338 329 326 330 334 335 337 336 333 332 331 331 329 327 326 327 328 328 326 325 325 326 326 322 317 317 318 317 317 317 315 311 308 305 304 302 301 298 295 292 291 290 290 291 291 291 289 288 285 281 279 277 275 275 274
319 297 265 122 68 79 47 20 62 31 332 340 10 345 319 271 209 283 304 310 310 301 298 311 313 309 310 315 116 347 343 338 330 329 334 336 336 336 334 332 331 330 328 326 325 326 328 329 327 325 324 324 324 324 321 319 319 319 318 315 313 310 309 309 308 307 305 303 300 297 295 292 290 290 291 292 293 291 289 286 284 282 280 279 278 277
297 296 264 141 31 98 165 209 80 64 44 77 93 4 338 301 294 317 318 317 311 307 303 307 310 302 298 320 345 336 335 336 334 333 334 335 337 336 332 331 331 329 326 326 327 326 328 330 327 325 325 324 324 324 321 320 320 320 317 313 312 313 315 315 313 311 309 307 306 303 300 295 291 291 292 293 294 292 288 285 284 283 282 282 281 280
283 290 153 179 326 265 174 232 324 37 70 113 134 43 20 333 315 312 304 298 307 311 310 310 309 296 298 328 333 326 331 336 334 332 331 331 332 331 331 331 330 329 327 326 326 326 329 330 328 326 325 325 324 323 321 322 322 320 316 315 317 320 320 318 315 312 308 306 305 303 298 294 292 292 293 294 294 291 286 283 283 283 282 281 280 279
279 260 273 310 321 304 192 20 352 349 17 109 22 16 9 342 316 299 274 212 305 310 311 311 303 291 304 320 322 326 335 337 334 333 331 328 328 328 329 330 329 328 326 324 325 327 328 328 327 327 326 324 323 321 321 323 323 322 321 322 322 320 317 313 309 306 302 298 299 298 293 290 290 291 293 294 293 289 285 284 283 281 280 279 278 276
320 269 282 308 317 319 66 65 19 10 24 15 6 21 19 357 339 319 318 41 323 301 301 301 293 290 301 321 330 333 335 334 333 332 329 328 328 328 329 329 327 326 325 324 325 327 326 326 328 328 325 324 323 322 323 324 324 326 326 322 319 315 312 310 308 305 303 299 298 298 293 287 286 288 291 292 291 288 285 284 283 282 281 279 278 276
329 277 285 298 306 352 86 92 63 64 78 75 59 85 75 17 356 327 318 319 312 295 293 295 287 285 298 349 336 332 331 331 333 333 330 327 326 327 328 327 325 325 325 325 325 326 325 326 328 328 325 323 323 323 324 324 323 324 323 320 318 315 313 315 315 312 310 307 304 304 301 295 290 289 291 291 289 287 285 285 284 282 280 278 277 276
281 271 296 302 306 99 119 119 110 114 111 103 100 99 93 69 314 283 290 308 306 293 299 305 290 283 303 328 325 326 328 329 333 336 332 328 325 325 327 326 325 325 325 325 324 325 326 327 328 327 325 323 323 323 323 323 324 325 323 321 319 317 317 321 320 316 315 314 313 314 312 307 301 296 294 292 289 287 285 284 282 279 277 276 275 273
325 321 332 328 331 344 37 16 178 216 275 333 114 112 110 120 200 257 260 272 284 295 310 306 288 285 304 316 318 324 329 329 332 334 332 328 325 325 325 325 325 325 325 324 325 326 327 327 328 327 324 324 324 322 322 323 326 326 323 320 318 316 316 321 321 318 316 316 317 317 314 310 306 301 297 293 289 286 282 281 280 278 278 276 275 273
304 314 349 355 341 331 322 316 314 311 311 314 123 131 137 109 99 280 291 286 288 307 309 288 281 295 306 312 317 324 330 331 331 332 330 327 325 324 324 325 325 324 325 325 325 328 329 327 326 326 325 325 325 323 324 327 328 327 324 321 319 316 315 318 321 321 318 316 315 315 313 311 307 302 298 294 289 284 282 283 283 282 281 278 276 275
280 271 358 29 308 293 293 295 303 309 303 297 302 134 135 121 107 280 294 292 298 308 298 278 289 302 307 312 317 323 330 331 331 331 330 328 327 325 324 323 323 325 326 325 327 329 329 326 325 326 326 325 325 324 323 325 328 329 325 321 320 318 314 316 321 321 318 314 312 312 312 310 307 303 299 295 291 289 289 289 287 285 282 281 279 276
286 255 116 34 280 269 277 284 290 296 293 295 304 311 144 144 171 224 261 284 302 307 295 296 307 307 306 311 316 322 330 331 330 332 331 329 327 324 321 320 322 325 326 326 327 329 327 325 324 325 326 326 326 326 326 325 328 330 326 320 319 318 316 319 321 319 317 313 310 309 309 308 307 305 302 298 295 295 293 288 285 285 284 283 281 277
298 264 104 356 282 278 281 278 278 286 290 294 300 299 268 175 197 251 266 280 296 292 288 300 308 306 304 310 317 324 329 328 329 331 330 327 325 322 321 321 323 326 328 327 326 326 326 324 324 325 326 326 326 325 326 327 328 329 327 322 319 318 319 322 321 318 317 315 312 312 312 311 309 306 305 302 299 299 296 292 291 292 289 287 284 280
286 288 82 309 283 286 280 267 273 286 290 292 289 278 248 218 256 277 282 288 287 278 281 296 303 302 303 311 318 324 325 324 326 327 327 326 325 324 323 323 325 328 329 327 325 325 324 323 324 325 326 327 326 324 326 330 330 327 324 320 319 319 321 322 319 317 317 316 315 316 316 316 315 314 313 310 307 306 304 302 300 298 295 292 289 285
325 10 86 240 290 291 274 272 290 296 300 295 257 203 224 274 285 290 295 300 297 289 293 302 302 299 307 319 319 319 321 323 325 327 328 327 326 325 324 324 326 328 327 326 324 323 323 324 324 324 325 327 326 324 328 331 330 326 322 319 320 321 322 321 317 317 317 315 315 316 316 317 317 317 317 316 314 310 307 303 300 297 295 294 292 288
327 303 157 322 303 303 345 327 317 325 0 255 217 208 250 283 302 308 304 305 306 303 305 306 301 300 317 324 319 318 322 325 327 329 329 326 323 322 324 326 327 327 326 325 324 323 324 325 324 324 326 328 326 326 330 332 328 324 321 320 320 322 322 320 317 317 317 315 314 315 316 317 317 316 316 316 314 311 307 302 297 294 292 290 290 289
323 301 322 356 307 300 333 329 320 326 126 192 197 192 240 302 318 315 309 307 306 305 305 303 303 312 322 325 323 323 325 326 327 328 326 322 321 322 325 327 328 327 326 324 324 324 324 324 323 324 326 327 327 327 329 330 326 322 320 319 320 321 321 318 317 317 316 314 314 315 317 317 316 315 314 314 313 309 305 301 296 292 290 288 287 287
242 293 330 10 304 299 320 323 310 278 260 21 111 125 94 337 326 316 310 309 308 307 303 302 308 318 324 327 326 323 323 323 323 323 322 320 323 325 326 329 329 328 326 325 325 325 324 322 323 324 325 326 327 327 326 326 323 321 319 319 320 320 319 317 317 316 314 313 313 314 317 317 315 313 313 313 311 307 304 301 297 293 289 287 286 284
307 327 330 326 275 290 313 327 325 318 350 115 127 111 22 336 323 315 307 305 310 313 313 314 318 322 324 325 323 320 319 320 320 320 320 322 327 328 328 329 329 327 326 326 325 324 323 323 323 324 325 327 329 328 325 324 324 321 320 320 320 319 319 318 316 314 314 313 313 314 315 316 314 312 312 312 310 306 303 300 298 295 291 288 286 283
331 347 316 298 304 303 317 335 323 312 1 136 143 80 3 333 330 325 313 309 316 321 323 323 321 322 323 321 321 321 320 319 318 319 322 326 330 330 328 327 327 326 325 324 324 323 323 324 324 324 326 328 329 327 324 324 324 322 321 320 320 318 319 318 316 314 314 313 313 314 314 314 312 310 311 312 310 307 304 302 299 296 293 289 286 282
334 338 325 331 356 328 314 305 284 286 274 142 132 38 7 340 333 327 310 305 311 326 338 330 322 323 324 322 322 324 322 318 316 320 326 329 330 329 326 324 324 323 323 322 322 322 322 323 324 325 326 327 327 326 325 324 323 322 321 320 320 319 319 318 315 314 314 314 313 314 314 312 311 309 310 310 308 305 303 302 300 297 292 287 285 282
16 359 336 313 297 313 307 302 303 306 308 120 103 22 4 340 324 316 303 296 315 355 345 333 327 326 325 324 324 325 323 320 317 322 328 328 326 325 324 323 322 322 322 322 322 323 324 324 324 326 328 327 325 325 325 324 323 323 322 321 320 319 317 316 316 315 315 314 314 313 312 311 310 309 308 306 304 302 299 298 298 296 291 286 283 283
81 45 256 266 280 306 305 300 308 307 311 82 39 352 352 342 325 313 295 286 351 356 341 331 329 326 324 324 324 325 326 321 318 322 326 324 323 323 323 322 321 321 321 322 323 324 324 324 325 327 328 327 325 326 326 325 324 323 322 321 319 318 317 317 317 316 315 315 314 312 311 311 309 308 307 305 302 300 298 296 296 295 292 289 286 284
129 325 283 282 291 296 292 291 287 272 271 43 4 346 348 339 323 309 289 298 343 342 333 329 326 322 322 323 324 326 327 321 316 318 321 321 320 321 321 321 320 321 321 322 323 323 324 325 327 328 328 327 326 326 327 327 325 323 322 321 319 318 318 318 318 317 315 314 313 312 311 310 309 307 306 305 302 300 299 298 297 296 295 293 291 288
189 281 275 277 299 302 288 282 287 273 204 25 357 352 346 332 315 302 299 315 329 328 326 326 322 319 321 324 324 323 320 316 315 316 318 320 320 320 321 321 320 321 322 322 323 324 325 326 326 326 326 327 326 327 328 327 325 323 322 320 319 318 318 318 318 316 315 314 313 312 311 310 308 307 306 304 302 301 301 300 299 297 296 296 295 291
240 282 259 253 297 308 284 282 299 279 177 358 345 351 353 337 316 305 309 316 321 321 322 322 319 319 322 324 322 319 317 317 318 319 320 322 322 321 321 321 321 322 323 323 324 325 326 326 326 325 325 326 327 328 329 327 325 323 322 320 319 319 319 319 318 316 315 314 313 312 312 310 308 307 306 304 302 301 302 302 301 299 298 298 297 292
277 312 299 288 317 312 287 286 304 286 187 3 347 342 349 334 312 306 311 315 317 317 319 319 317 320 324 322 318 316 318 320 321 323 323 323 323 322 322 322 323 322 323 323 324 326 327 326 325 325 325 326 328 328 329 328 325 323 322 320 320 321 319 318 318 317 316 315 314 312 311 309 308 308 306 303 302 302 303 303 303 302 301 300 298 294
178 223 309 329 98 338 303 285 284 293 319 347 343 322 317 318 312 312 313 311 312 316 318 316 315 319 322 319 316 317 318 320 323 324 323 323 324 323 322 323 323 321 322 323 323 325 327 326 324 324 325 327 328 328 328 327 324 322 322 322 322 322 320 318 318 317 316 315 314 312 310 308 308 307 305 303 303 304 303 303 302 303 303 302 301 300
170 201 307 312 200 235 268 267 276 294 309 325 326 315 314 313 314 319 314 308 310 315 316 314 315 318 318 316 317 320 319 319 323 324 321 321 322 323 322 322 321 320 321 323 323 325 326 325 324 324 325 327 328 328 327 327 325 323 323 324 323 322 320 319 318 318 317 315 314 312 309 308 307 306 305 304 304 302 302 302 302 303 303 303 304 306
160 191 281 279 267 269 262 264 283 298 304 312 315 311 308 309 316 320 313 308 311 313 314 317 316 315 316 317 319 321 321 320 321 321 320 320 320 320 321 321 321 321 322 323 324 326 326 324 322 323 325 326 328 328 327 326 325 324 323 324 323 322 321 320 318 318 317 315 313 312 310 308 307 306 307 306 304 301 299 298 299 300 301 302 304 308
158 177 214 246 274 290 282 285 308 318 313 313 311 307 309 314 319 319 313 310 313 314 316 317 314 314 317 320 322 323 321 320 320 320 321 320 318 320 321 321 321 323 324 324 324 325 325 324 323 324 325 327 327 328 326 325 325 324 323 324 324 323 322 321 319 318 317 315 314 313 311 309 308 309 309 308 306 305 303 301 299 298 298 300 304 311
152 168 235 255 266 273 278 292 317 323 310 301 296 304 320 322 319 318 314 312 313 314 315 317 317 318 320 321 323 323 320 319 321 321 321 319 319 321 321 320 321 323 325 324 323 323 324 324 323 324 325 325 326 327 326 325 325 324 325 326 326 324 322 321 320 319 318 316 315 313 311 309 309 308 308 307 306 306 304 302 302 300 298 299 302 307
117 159 241 270 274 271 280 303 328 325 308 291 292 311 321 321 317 315 314 314 314 314 316 317 319 320 320 321 322 322 319 320 321 321 321 319 318 320 321 322 323 324 324 324 323 323 322 322 322 324 324 324 325 325 325 325 325 326 327 327 326 323 321 320 321 321 319 317 315 312 310 309 308 305 304 304 304 303 300 298 297 296 295 300 308 311
155 241 268 288 285 283 300 325 334 319 304 301 310 315 318 317 314 311 312 314 314 314 316 317 317 317 318 319 320 320 319 320 321 322 322 319 316 318 321 323 324 323 322 322 322 321 321 322 323 324 324 324 324 325 325 325 325 328 329 327 324 322 321 322 323 323 320 318 315 312 310 310 308 305 303 302 302 303 304 306 310 309 299 297 318 330
211 277 297 290 286 290 305 320 325 304 291 297 306 311 312 312 310 309 310 312 312 313 316 316 315 315 316 317 319 320 319 319 321 322 321 318 317 318 322 324 324 321 319 320 321 321 322 323 324 324 324 324 325 326 326 325 327 329 328 325 324 323 322 324 325 324 320 316 313 312 312 311 309 307 306 304 301 302 303 307 315 319 310 297 324 339